FW3092 Weather Reports


time (UTC)temp
C
wind
direction
speed
KPH
gust
KPH
rain 1hr
cm
rain 24hr
cm
rain mn
cm
humidity
%
barometer
mb
20260510021617 9 156 6.4 16.1 0.00 0.69 0.69 92 951.5
20260510020016 9 184 8.0 16.1 0.00 0.69 0.69 92 951.6
20260510014517 9 194 9.7 16.1 0.00 0.69 0.69 92 951.3
20260510013020 9 198 8.0 16.1 0.00 0.69 0.69 92 951.2
20260510011520 9 196 9.7 16.1 0.00 0.69 0.69 92 951.3
20260510010014 10 198 8.0 19.3 0.00 0.69 0.69 91 951.0
20260510004516 10 196 8.0 16.1 0.00 0.69 0.69 91 950.9
20260510003012 10 169 6.4 12.9 0.00 0.69 0.69 91 950.8
20260510001512 10 184 6.4 11.3 0.00 0.69 0.69 90 950.8
20260510000011 10 180 6.4 9.7 0.00 0.69 0.69 90 950.8
20260509234518 10 193 6.4 11.3 0.00 0.69 0.69 89 950.5
20260509233023 11 187 8.0 17.7 0.00 0.69 0.69 89 950.5
20260509231508 11 185 9.7 17.7 0.00 0.69 0.69 90 950.2
20260509230008 11 203 8.0 16.1 0.00 0.69 0.69 90 950.3
20260509224508 11 186 8.0 17.7 0.00 0.69 0.69 90 950.5
20260509223006 11 194 11.3 20.9 0.00 0.69 0.69 90 950.6
20260509221505 11 223 9.7 16.1 0.00 0.69 0.69 91 950.5
20260509220006 11 196 11.3 19.3 0.00 0.69 0.69 91 950.5
20260509214601 11 186 8.0 19.3 0.00 0.69 0.69 91 950.5
20260509213054 10 167 11.3 19.3 0.00 0.69 0.69 92 950.7
20260509211559 10 204 9.7 17.7 0.00 0.69 0.69 92 950.7
20260509210104 10 177 11.3 19.3 0.00 0.69 0.69 92 950.8
20260509204547 10 201 11.3 22.5 0.00 0.69 0.69 92 950.9
20260509203046 10 212 11.3 17.7 0.00 0.69 0.69 92 951.1
20260509201554 10 204 11.3 17.7 0.00 0.69 0.69 92 951.2
20260509200045 10 207 9.7 16.1 0.00 0.69 0.69 92 951.3
20260509194540 10 207 11.3 19.3 0.00 0.69 0.69 92 951.6
20260509193044 10 191 9.7 19.3 0.00 0.69 0.69 92 951.7
20260509191539 10 222 12.9 19.3 0.00 0.69 0.69 92 951.8
20260509190035 9 203 6.4 14.5 0.00 0.69 0.69 92 951.9
20260509184540 9 201 8.0 16.1 0.00 0.69 0.69 93 951.8
20260509183035 9 190 8.0 16.1 0.00 0.69 0.69 93 951.8
20260509181529 9 193 9.7 20.9 0.00 0.69 0.69 93 951.8
20260509180028 9 177 9.7 14.5 0.00 0.69 0.69 93 951.8
20260509174527 9 179 9.7 17.7 0.00 0.69 0.69 93 951.7
20260509173029 9 198 9.7 16.1 0.00 0.69 0.69 93 951.7
20260509171532 8 210 9.7 14.5 0.00 0.69 0.69 93 951.7
20260509170023 8 197 4.8 17.7 0.03 0.69 0.69 93 951.8
20260509164621 8 206 6.4 11.3 0.03 0.69 0.69 93 952.0
20260509163034 9 191 8.0 14.5 0.03 0.69 0.69 93 951.9
20260509161523 8 189 11.3 19.3 0.05 0.69 0.69 93 952.1
20260509160016 8 173 9.7 17.7 0.03 0.66 0.66 93 952.1
20260509154515 8 173 6.4 16.1 0.05 0.66 0.66 93 952.2
20260509153020 8 175 4.8 16.1 0.08 0.66 0.66 93 952.3
20260509151511 8 179 8.0 14.5 0.05 0.64 0.64 93 952.6
20260509150006 8 165 3.2 14.5 0.10 0.69 0.64 93 952.7
20260509144504 8 185 3.2 14.5 0.08 0.66 0.61 93 952.7
20260509143002 8 171 3.2 14.5 0.10 0.64 0.58 93 952.8
20260509141600 8 138 6.4 16.1 0.13 0.64 0.58 93 952.8
20260509141502 8 175 8.0 16.1 0.13 0.64 0.58 93 952.8
20260509140105 8 160 4.8 9.7 0.10 0.58 0.53 93 952.7
20260509134558 7 192 4.8 14.5 0.13 0.61 0.53 93 952.9
20260509133105 7 155 4.8 14.5 0.13 0.56 0.48 93 953.0
20260509131556 7 178 3.2 9.7 0.13 0.53 0.46 93 953.0
20260509130057 7 172 4.8 11.3 0.13 0.51 0.43 93 953.1
20260509124558 7 190 3.2 11.3 0.15 0.48 0.41 93 953.0
20260509123101 7 173 6.4 11.3 0.18 0.43 0.36 93 953.0
20260509121558 7 191 4.8 11.3 0.20 0.41 0.33 93 953.0
20260509120048 7 185 6.4 9.7 0.23 0.38 0.30 92 953.4
20260509114557 7 174 6.4 11.3 0.20 0.33 0.25 92 953.3
20260509113041 6 169 9.7 17.7 0.15 0.25 0.18 92 953.3
20260509111540 6 157 6.4 11.3 0.10 0.20 0.13 92 953.2
20260509110039 6 168 4.8 11.3 0.05 0.15 0.08 92 953.2
20260509104536 6 174 6.4 12.9 0.03 0.13 0.05 92 953.1
20260509103034 6 197 4.8 11.3 0.00 0.10 0.03 92 953.0
20260509101536 6 195 6.4 12.9 0.00 0.10 0.03 92 953.0
20260509100032 6 184 8.0 11.3 0.00 0.10 0.03 91 952.9
20260509094540 6 198 6.4 11.3 0.00 0.10 0.03 91 953.0
20260509093028 6 192 4.8 12.9 0.00 0.10 0.03 91 953.1
20260509091528 6 171 4.8 12.9 0.00 0.10 0.03 90 953.1
20260509090047 6 182 3.2 12.9 0.00 0.10 0.03 90 953.2
20260509084529 6 182 6.4 9.7 0.00 0.10 0.03 89 953.2
20260509083041 5 169 1.6 8.0 0.00 0.10 0.03 88 953.2
20260509081527 5 167 4.8 9.7 0.00 0.10 0.03 87 953.4
20260509080118 5 192 3.2 9.7 0.00 0.10 0.03 86 953.4
20260509074528 5 178 4.8 6.4 0.03 0.10 0.03 85 953.5
20260509073018 5 178 1.6 6.4 0.03 0.10 0.03 85 953.5
20260509071518 5 192 3.2 4.8 0.03 0.10 0.03 84 953.5
20260509070013 5 176 4.8 8.0 0.00 0.08 0.00 83 953.4
20260509064511 5 178 3.2 8.0 0.00 0.08 0.00 82 953.6
20260509063010 6 156 1.6 4.8 0.00 0.08 0.00 81 953.6
20260509061508 6 135 0.0 4.8 0.00 0.08 0.00 80 953.7
20260509060008 5 76 1.6 4.8 0.00 0.08 0.00 79 954.0
20260509054505 5 65 1.6 3.2 0.00 0.08 0.00 77 954.1
20260509053007 5 65 1.6 3.2 0.00 0.08 0.00 77 954.1
20260509051507 5 64 3.2 6.4 0.00 0.08 0.00 77 954.1
20260509050010 6 67 3.2 6.4 0.00 0.08 0.00 77 954.0
20260509044606 6 101 1.6 4.8 0.00 0.08 0.00 76 954.3
20260509043102 5 99 1.6 4.8 0.00 0.08 0.00 76 954.4
20260509041555 5 69 1.6 4.8 0.00 0.08 0.00 76 954.4
20260509040052 5 69 1.6 4.8 0.00 0.08 0.00 75 954.4
20260509034559 6 69 1.6 6.4 0.00 0.08 0.08 72 954.5
20260509033104 6 90 1.6 4.8 0.00 0.08 0.08 72 954.5
20260509031550 6 90 3.2 6.4 0.00 0.08 0.08 71 954.3
20260509030050 7 92 1.6 4.8 0.00 0.08 0.08 70 954.6
20260509024558 7 92 1.6 4.8 0.00 0.08 0.08 67 954.7
20260509023048 7 91 1.6 4.8 0.00 0.08 0.08 67 954.7